Tracking 25734 objects as of 26-May-2022
HD Live streaming from Space Station
objects crossing your sky now

COSMOS 2251 DEB

Track COSMOS 2251 DEB now!
10-day predictions


NORAD ID: 35643
Int'l Code: 1993-036ANJ
Perigee: 653.7 km
Apogee: 724.5 km
Inclination: 74.0 °
Period: 98.4 minutes
Semi major axis: 7060 km
RCS: 0.0012 m2 (small)
Launch date: June 16, 1993
Source: Commonwealth of Independent States (former USSR) (CIS)
Launch site: PLESETSK MISSILE AND SPACE COMPLEX (PKMTR)

Note: This is SATELLITE DEBRIS
aabbcc
Your satellite tracking list
Your tracking list is empty




NASA's NSSDC Master Catalog

Two Line Element Set (TLE):
1 35643U 93036ANJ 22145.85883386  .00006165  00000-0  11735-2 0  9992
2 35643  74.0108 211.4116 0050142 298.3726  61.2390 14.63482301691153
Source of the keplerian elements: AFSPC